Terug naar catalogus

STARLINK-30903

ActiefCommunicatieVLEO
NORAD 58355·PAYLOAD·🇺🇸 United States

Gelanceerd Nov 18, 2023 vanaf Cape Canaveral Space Force Station

Loading…

Volgende Passages (komende 24 uur)

TLE

VersSource: CelesTrak SupGP

Epoch: Sep 14, 2026, 14:41 UTC

1 58355C 23177E   26257.61229167  .00020802  00000+0  75354-3 0  2577
2 58355  43.0041   3.4726 0001449 276.4813  63.3041 15.27563808    14

Volg STARLINK-30903 in realtime met AllMySat

Download on the App Store